Location: Monrovia
(34.7865°N, 86.7139°W)
Time: 00:28:46
(UTC+00:00)

Cosmos 1953 Rocket - Pass Details

Date: 14 July 2020
Orbit: 605 x 634 km, 82.5° (Epoch: 12 August)

Event Time Altitude Azimuth Distance (km) Brightness Sun altitude
Rises 01:23:57 0° 163° (SSE) 2,844 6.5 -4.9°
Reaches altitude 10° 01:26:19 10° 153° (SSE) 1,945 5.6 -5.3°
Maximum altitude 01:30:07 31° 91° (E) 1,062 4.3 -6.0°
Drops below altitude 10° 01:33:58 10° 28° (NNE) 1,962 6.2 -6.7°
Sets 01:36:21 0° 19° (NNE) 2,873 7.2 -7.1°
